Location: G�ndlingen
(48.0142°N, 7.6396°E)
Time: 01:35:43
(UTC+00:00)

DELTA 2 R/B (1) - Pass Details

Date: 05 July 2020
Orbit: 790 x 803 km, 39.6° (Epoch: 11 August)

Event Time Altitude Azimuth Distance (km) Brightness Sun altitude
Rises 22:21:59 0° 241° (WSW) 3,286 6.7 -17.5°
Reaches altitude 10° 22:24:41 10° 232° (SW) 2,360 5.8 -17.6°
Maximum altitude 22:29:35 32° 170° (S) 1,335 4.2 -17.8°
Enters shadow 22:30:01 32° 161° (SSE) 1,347 4.2 -17.9°
Exits shadow 22:36:25 - 102° (ESE) 3,024 6.3 -18.1°
Sets 22:37:12 0° 99° (E) 3,302 6.6 -18.2°
